Location: Prague
(50.0830°N, 14.4670°E)
Time: 10:00:13
(UTC+02:00)

RS-15 - Pass Details

Date: 02 April 2023
Orbit: 1885 x 2159 km, 64.8° (Epoch: 29 May)

Event Time Altitude Azimuth Distance (km) Brightness Sun altitude
Rises 23:36:20 0° 315° (NW) 5,664 11.4 -31.5°
Reaches altitude 10° 23:39:53 10° 317° (NW) 4,637 10.8 -31.8°
Maximum altitude 23:52:02 72° 43° (NE) 2,144 8.1 -32.6°
Enters shadow 23:56:12 47° 112° (ESE) 2,549 8.2 -32.8°
